{"data":{"norad_id":55827,"epoch":"2026-05-24T22:07:26.214816Z","epoch_age_seconds":71914,"freshness":"FRESH","line1":"1 55827U 23029AH  26144.92183119 -.00000080  00000+0 -22979-3 0  9995","line2":"2 55827  87.9181 279.0679 0001868  93.5339 266.6008 13.20768894158075","mean_motion":13.20768894,"eccentricity":0.0001868,"inclination_deg":87.9181,"raan_deg":279.0679,"arg_perigee_deg":93.5339,"mean_anomaly_deg":266.6008,"bstar":-0.00022979,"rev_number":15807,"period_min":109.02740112533,"perigee_km":1180.3723177882,"apogee_km":1183.1967044647,"semimajor_km":7559.9215111264,"source":"CELESTRAK","updated_at":"2026-05-25T13:38:22.697098Z"}}